Location: Navajo
(48.7922°N, 105.0603°W)
Time: 15:34:27
(UTC+00:00)

QB50P2 - Pass Details

Date: 03 July 2022
Orbit: 590 x 605 km, 97.9° (Epoch: 06 August)

Event Time Altitude Azimuth Distance (km) Brightness Sun altitude
Rises 08:28:53 0° 14° (NNE) 2,862 ? -15.8°
Reaches altitude 10° 08:31:03 10° 15° (NNE) 1,956 ? -15.7°
Maximum altitude 08:35:19 81° 103° (ESE) 617 ? -15.4°
Enters shadow 08:37:38 27° 189° (S) 1,182 ? -15.3°
